Showing default

COSMOS 2538, 44424

Orbit data source: Space-Track

COSMOS 2538, 44424 is a payload satellite owned by TsNIIKhM (CIS) in SSO that was launched on Wed, 10 Jul 2019 UTC via a SOYUZ-2-1V launch vehicle from the Plesetsk Missile And Space Complex (PKMTR). Payload-class satellites include a variety of spacecraft equipped with specific instruments for various scientific and technological missions. These include communications satellites like Starlink; space stations such as the ISS; scientific satellites like the Hubble; Earth observation satellites from companies like Planet Labs, Umbra, and HawkEye 360; GPS; miniature CubeSats for education and research; and military/defense satellites.

Loading next visibility...
Identifier
44424, 2019-039D
Orbit
SSO
Country
Flag of CISCIS
Related business
Manufacturer
TsNIIKhM
Mission
Operational Defense Technology
Bus & Motor
NIVELIR, Unknown motor
Mass
~100 kg wet, ~100 kg dry
Launch date (UTC)
2019-07-10 (7 years ago)
Launch vehicle
SOYUZ-2-1V
Launch site
Plesetsk Missile And Space Complex (PKMTR)
Object type
Payload
Rocket body
Debris
Shape & HBR
Hex Cyl + 1 Ant, 0.4 m
Radar Cross Section
0.503 m², Medium (>0.1 m² and < 1m²)

Expand to show TLE details & history
Last TLE update: 10 hours ago

TLE from 10 hours ago
0 COSMOS 2538
1 44424U 19039D   26208.56807603  .00006040  00000-0  26907-3 0  9990
2 44424  97.5872 288.2509 0040081 263.2370  96.4303 15.21102533386047
Epoch: 2026-07-27T13:38Z
TLE epoch observation values (Epoch: 2026-07-27T13:38:01.768Z)
Latitude
-0.0001°
Longitude
138.49376°
Altitude
508.799 km
Speed
7.608 km/s
True Right ascension
19h 13m 00s
True Declination
0° 00' 00"
Sunlit
Object was in full shadow at epoch
Visualization orbit readout
Latitude
Unknown
Longitude
Unknown
Altitude
Unknown
Speed
Unknown
Apparent Right ascension
Unknown
Apparent Declination
Unknown
Sunlit
N/A
Visualization observer readout
Local Sidereal Time
12:58:04
Azimuth
Unknown
Elevation
Unknown
Doppler factor
Unknown
Orbital elements
Apogee altitude
527.052 km
Perigee altitude
471.92 km
Semi-major axis
6,877.623 km
Eccentricity
0.00401
Inclination
97.5872°
RAAN
288.2509°
Arg. of periapsis
263.237°
True anomaly
96.88644°
Mean anomaly
96.4303°
Eccentric anomaly
96.6584°
Mean motion
3.80527 °/min
Orbital period
94.61 mins
BSTAR
0.00026907
Loading maneuver chart data...
Computing Atmospheric mass density...

Documentation

Showing up to 5 results
|